Weather WX

World > North America > United States > Pennsylvania

Darlington, Pennsylvania Regional Weather

Lat: 40.81N, Lon: 80.42W
Wx Zone: PAZ020
Warning FLW WEATHER ALERT - (More Info. Click Here) Warning
Feedback

Darlington, PA Regional Weather

Expires:201906161600;;165376
ASUS41 KCTP 161510
RWRCTP

REGIONAL WEATHER ROUNDUP
NATIONAL WEATHER SERVICE STATE COLLEGE PA
1100 AM EDT SUN JUN 16 2019

Note: "fair" indicates few or no clouds below 12,000 feet with no 
significant weather and/or obstructions to visibility.

* = STATION THAT DOES NOT REPORT PRECIPITATION /E.G. RAIN...SNOW...ETC/
    THUNDER OR FOG.


PAZ002>004-007>009-013>016-020>023-029>032-161600-
WESTERN PENNSYLVANIA
  
CITY           SKY/WX    TMP DP  RH WIND       PRES   REMARKS
ERIE           LGT RAIN  57  55  93 NE12      29.85R FOG              
MEADVILLE      CLOUDY    66  64  93 W8        29.85R                  
FRANKLIN*      CLOUDY    66  64  93 W7        29.86R FOG              
NEW CASTLE     CLOUDY    68  65  90 W7        29.87S                  
BEAVER COUNTY  NOT AVBL                                               
BUTLER*        CLOUDY    69  65  86 SW7       29.87S                  
PITTSBURGH INT CLOUDY    69  65  86 SW12G17   29.87R                  
PITTSBURGH     CLOUDY    70  64  81 SW13G23   29.87S                  
INDIANA*       CLOUDY    68  66  94 W14       29.91S                  
LATROBE        CLOUDY    70  66  88 SW14G25   29.89S                  
WASHINGTON CO* LGT RAIN  70  65  84 SW12      29.91F                  
$$


SKY/WX - Weather  TMP - Temperature  DP - Dew Point  RH - Relative Humidity
WIND - Wind Direction/Speed PRES - Barometric Pressure VSB - Visibility
WCI - Wind Chill Index E13G22 Wind - East Wind 13 mph/Gusts of 22 mph